Regional Weather Roundup
Issued by NWS

Home | Current Version | Previous Version | Text Only | Print | Product List | Glossary Off
Versions: 1 2 3 4 5 6 7 8 9 10 11 12 13 14 15 16 17 18 19 20 21 22 23 24 25 26 27 28 29 30 31 32 33 34 35 36 37 38 39 40 41 42 43 44 45 46 47 48 49 50

000
ASUS43 KMPX 191401
RWRMN
WEATHER ROUNDUP FOR MINNESOTA
NATIONAL WEATHER SERVICE TWIN CITIES/CHANHASSEN MN
800 AM CST FRI DEC 19 2014


NOTE: "FAIR" INDICATES FEW OR NO CLOUDS BELOW 12,000 FEET WITH NO
SIGNIFICANT WEATHER AND/OR OBSTRUCTIONS TO VISIBILITY. N/A MEANS
CURRENT SKY AND/OR WEATHER CONDITIONS ARE NOT AVAILABLE.

MNZ060>063-068>070-191500-
   Twin Cities Metro

CITY           SKY/WX    TMP DP  RH WIND       PRES   REMARKS
TWIN CITIES    CLOUDY    23  18  81 SE6       30.25S WCI  16
ST PAUL        CLOUDY    23  19  85 SE8       30.27S WCI  14
CRYSTAL        CLOUDY    24  18  77 SE7       30.23S WCI  16
BLAINE         CLOUDY    25  21  86 SE7       30.23S WCI  17
LAKEVILLE      CLOUDY    21  19  93 SE3       30.23F
EDEN PRAIRIE   CLOUDY    23  19  85 SE6       30.23S WCI  16
SOUTH ST PAUL  CLOUDY    24  19  83 SE3       30.26S
LAKE ELMO      CLOUDY    23  19  86 S5        30.26S WCI  17
$$
MNZ001>005-007-008-013>017-022>024-027-028-191500-
   Northwest Minnesota

CITY           SKY/WX    TMP DP  RH WIND       PRES   REMARKS
BEMIDJI        LGT SNOW  19  17  90 SE7       30.12S WCI  10
HALLOCK        CLOUDY    23  21  93 SE12      30.07S FOG     WCI  12
ROSEAU         CLOUDY    21  18  86 SE9       30.10S WCI  11
WARROAD        CLOUDY    21  18  86 SE8       30.12R WCI  12
THIEF RVR FALL CLOUDY    21  21 100 SE8       30.09S WCI  12
CROOKSTON      CLOUDY    23  21  93 S12       30.10S FOG     WCI  12
FOSSTON        CLOUDY    19  18  93 SE7       30.10S FOG     WCI  10
DETROIT LAKES  CLOUDY    23  23 100 SE8       30.11S FOG     WCI  14
MOORHEAD       CLOUDY    25  25 100 S13       30.10S FOG     WCI  13
PARK RAPIDS    CLOUDY    20  17  88 SE12      30.12S WCI   8
MAHNOMEN       CLOUDY    22  19  91 SE10      30.09F WCI  11
$$
MNZ006-009>011-018-025>026-191500-
   North Central Minnesota

CITY           SKY/WX    TMP DP  RH WIND       PRES   REMARKS
BAUDETTE       CLOUDY    20  16  84 VRB3      30.13S
FLAG ISLAND    CLOUDY    19  18  93 S15       30.12S WCI   5
INTL FALLS     CLOUDY    21  17  84 SE6       30.16S WCI  13
WASKISH        FLURRIES  19  18  93 CALM      30.14S
BIG FORK       MOCLDY    19  18  93 S5        30.17R WCI  13
LONGVILLE      CLOUDY    19  18  93 SE6       30.16S WCI  11
GRAND RAPIDS   CLOUDY    19  16  86 SE6       30.16S WCI  11
CRANE LAKE     CLOUDY    19  18  93 S5        30.21S WCI  13
ORR            LGT SNOW  19  16  86 SE6       30.16S WCI  11
COOK           LGT SNOW  19  18  93 SE3       30.19S
WALKER         CLOUDY    19  16  89 S6        30.14R WCI  10
$$
MNZ012-019>021-037-191500-
   Northeast Minnesota

CITY           SKY/WX    TMP DP  RH WIND       PRES   REMARKS
DULUTH         LGT SNOW  21  18  88 S6        30.20S FOG     WCI  13
ELY            CLOUDY    21  18  86 CALM      30.19S
HIBBING        CLOUDY    20  16  84 SE7       30.19S WCI  11
EVELETH        CLOUDY    21  19  93 SE5       30.20S WCI  15
DULUTH HARBOR  CLOUDY    25  21  86 CALM      30.27S
TWO HARBORS    CLOUDY    25  19  80 W2        30.22R
SILVER BAY     CLOUDY    23  21  93 CALM      30.21S
GRAND MARAIS     N/A     29  22  75 SW10      30.27R WCI  20
G MARAIS ARPRT CLOUDY    19  16  86 S3        30.20R
$$
MNZ029>031-032-039>041-046>048-054>057-064-191500-
   West Central Minnesota

CITY           SKY/WX    TMP DP  RH WIND       PRES   REMARKS
FERGUS FALLS   CLOUDY    25  23  93 S12       30.14F FOG     WCI  14
WHEATON        CLOUDY    23  21  93 SE10      30.14S FOG     WCI  12
MORRIS         PTCLDY    25  25 100 SE12      30.13S FOG     WCI  14
ALEXANDRIA     CLOUDY    23  21  92 SE12      30.14S FOG     WCI  12
ELBOW LAKE     CLOUDY    23  23  98 SE13      30.12F FOG     WCI  12
WADENA         CLOUDY    19  19 100 NW8       30.13S FOG     WCI   9
GLENWOOD       CLOUDY    23  21  93 SE7       30.15S FOG     WCI  15
APPLETON       CLOUDY    27  25  93 SE3       30.15S FOG
BENSON         CLOUDY    25  23  93 S6        30.15S WCI  18
ORTONVILLE     CLOUDY    27  25  93 S7        30.12S FOG     WCI  19
MADISON        CLEAR     30  28  93 S6        30.14S FOG     WCI  24
WILLMAR        CLOUDY    27  25  93 SE9       30.18S FOG     WCI  17
$$
MNZ033>034-036-042>043-049>051-058-059-191500-
   Central Minnesota

CITY           SKY/WX    TMP DP  RH WIND       PRES   REMARKS
ST CLOUD       CLOUDY    22  18  85 SE8       30.20F WCI  12
SAUK CENTRE    CLOUDY    21  20  96 SE7       30.17S FOG     WCI  13
PAYNESVILLE    CLOUDY    20  20 100 E6        30.18S FOG     WCI  12
AITKIN         MIX PCPN  23  18  80 SE6       30.17S WCI  16
PINE RIVER     CLOUDY    19  18  93 SE7       30.19R FOG     WCI  10
BRAINERD       CLOUDY    20  16  84 S6        30.18S FOG     WCI  12
STAPLES        CLOUDY    19  18  93 S7        30.15S FOG     WCI  10
LONG PRAIRIE   CLOUDY    21  19  93 SE9       30.16S FOG     WCI  11
LITTLE FALLS   CLOUDY    21  18  86 SE7       30.19S WCI  13
LITCHFIELD     CLOUDY    25  25 100 SE5       30.19S FOG     WCI  19
BUFFALO        CLOUDY    22  19  87 SE5       30.22F WCI  16
MAPLE LAKE     CLOUDY    23  21  92 SE6       30.22S WCI  16
$$
MNZ037-044-045-052-053-191500-
   East Central Minnesota

CITY           SKY/WX    TMP DP  RH WIND       PRES   REMARKS
PRINCETON      CLOUDY    21  18  86 CALM      30.22S
MORA           CLOUDY    19  16  86 S3        30.24S
CAMBRIDGE      FLURRIES  23  16  74 SE3       30.22S
RUSH CITY      CLOUDY    22  18  87 SE5       30.24S WCI  15
MOOSE LAKE     LGT SNOW  23  19  86 CALM      30.21S
HINCKLEY       LGT SNOW  23  21  93 CALM      30.23S
CLOQUET        CLOUDY    21  19  93 SE3       30.21R FOG
MCGREGOR       CLOUDY    21  19  93 SE3       30.20S
$$
MNZ071>073-080-081-089-090-097-098-191500-
   Southwest Minnesota

CITY           SKY/WX    TMP DP  RH WIND       PRES   REMARKS
MONTEVIDEO     CLOUDY    27  27 100 S6        30.16F FOG     WCI  20
GRANITE FALLS  CLOUDY    27  26  94 SE8       30.18S FOG     WCI  19
CANBY          CLOUDY    29  27  92 S6        30.15S WCI  23
MARSHALL       CLOUDY    28  25  86 S6        30.15S WCI  22
REDWOOD FALLS  CLOUDY    27  25  92 S10       30.17F WCI  17
OLIVIA         CLOUDY    28  27  93 SE8       30.17F FOG     WCI  20
PIPESTONE      CLOUDY    27  27 100 SW6       30.13R FOG     WCI  20
WINDOM         CLOUDY    28  28 100 CALM      30.16F FOG
WORTHINGTON    CLOUDY    28  27  93 S10       30.16S WCI  19
JACKSON        CLOUDY    30  28  93 S7        30.18S FOG     WCI  23
TRACY          CLOUDY    30  28  94 S5        30.14F FOG     WCI  25
SLAYTON        CLOUDY    28  28 100 S3        30.14S FOG
$$
MNZ065>067-074>077-082>085-091>093-191500-
   South Central Minnesota

CITY           SKY/WX    TMP DP  RH WIND       PRES   REMARKS
MANKATO        CLOUDY    27  21  80 S8        30.21F WCI  18
NEW ULM        CLOUDY    27  27 100 S7        30.20S WCI  19
ST JAMES       CLOUDY    28  27  93 SE7       30.21S WCI  21
FAIRMONT       CLOUDY    27  21  80 S10       30.20S WCI  17
GLENCOE        CLOUDY    25  24  96 SE6       30.21S FOG     WCI  18
FARIBAULT      CLOUDY    25  21  86 SE3       30.23F
OWATONNA       PTCLDY    25  21  86 SE7       30.22F FOG     WCI  17
WASECA         CLOUDY    27  21  80 SE5       30.23F FOG     WCI  21
ALBERT LEA     CLOUDY    25  23  93 S6        30.22F FOG     WCI  18
$$
MNZ078>079-086>088-094>096-191500-
   Southeast Minnesota

CITY           SKY/WX    TMP DP  RH WIND       PRES   REMARKS
ROCHESTER      CLOUDY    23  18  81 S7        30.24S WCI  15
RED WING       CLOUDY    25  18  74 SE5       30.27S WCI  19
STANTON        CLOUDY    25  21  83 SE3       30.23F
DODGE CENTER   CLOUDY    25  21  86 S7        30.23R FOG     WCI  17
WINONA         CLOUDY    27  19  74 SE5       30.30S WCI  21
AUSTIN         CLOUDY    25  19  80 S5        30.24S WCI  19
PRESTON        CLOUDY    22  19  86 S6        30.25S WCI  15
$$
ABBREVIATIONS USED IN REMARKS
   TC - TEMPERATURES IN CELSIUS
  WCI - WIND CHILL INDEX
   HX - HEAT INDEX
  VSB - VISIBILITY
$$



USA.gov is the U.S. government's official web portal to all federal, state and local government web resources and services.